,

(GMT )
Dishforth

Weather History for EGXD - May, 2013

Change the Weather History Date:

Wednesday, May 22, 2013

  Actual Average Record
Temperature  
Mean Temperature 52 °F -  
Max Temperature 60 °F - - ()
Min Temperature 42 °F - - ()
Degree Days  
Heating Degree Days 13    
Growing Degree Days 2 (Base 50)    
Moisture  
Dew Point 39 °F    
Average Humidity 62    
Maximum Humidity 87    
Minimum Humidity 25    
Precipitation  
Precipitation 0.00 in - - ()
Sea Level Pressure  
Sea Level Pressure 30.04 in    
Wind  
Wind Speed 7 mph ()    
Max Wind Speed 22 mph    
Max Gust Speed -    
Visibility 7.9 miles    
Events      
T = Trace of Precipitation, MM = Missing Value Source: Averaged Metar Reports

Daily Weather History Graph

Daily Weather History Graph

Search for Another Location

Airport or City:

Trip Planner

Search our weather history database for the weather conditions in past years. The results will help you decide how hot, cold, wet, or windy it might be!

Date:

Astronomy

May. 22, 2013 Rise Set
Actual Time 4:51 AM BST 9:14 PM BST
Civil Twilight 4:03 AM BST 10:02 PM BST
Nautical Twilight 2:49 AM BST 11:17 PM BST
Astronomical Twilight 1:34 AM BST 12:29 AM BST
Moon 5:55 PM BST (5/22) 3:16 AM BST (5/22)
Length of Visible Light 17h 59m
Length of Day
16h 23m
Waxing Gibbous, 90% of the Moon is Illuminated
May 22
Waxing Gibbous
May 25
Full
May 31
Last Quarter
Jun 8
New
Jun 16
First Quarter

Hourly Weather History & Observations

Time (BST) Temp. Windchill Dew Point Humidity Pressure Visibility Wind Dir Wind Speed Gust Speed Precip Events Conditions
12:50 AM 49 °F - 44 °F 79% 30.10 in 13 mi South 1.2 mph - -   Mostly Cloudy
12:50 AM 48.2 °F - 44.6 °F 87% 30.09 in 6.2 mi South 1.2 mph - N/A   Mostly Cloudy
1:50 AM 50.0 °F - 44.6 °F 82% 30.06 in 6.2 mi ESE 2.3 mph - N/A   Scattered Clouds
2:50 AM 48.2 °F - 44.6 °F 87% 30.06 in 6.2 mi SE 2.3 mph - N/A   Overcast
3:50 AM 48 °F - 45 °F 84% 30.08 in 12 mi South 2.3 mph - -   Overcast
3:50 AM 48.2 °F - 44.6 °F 87% 30.06 in 6.2 mi South 2.3 mph - N/A   Overcast
4:50 AM 48.2 °F - 44.6 °F 87% 30.04 in 6.2 mi SSE 3.5 mph - N/A   Mostly Cloudy
5:50 AM 48.2 °F - 44.6 °F 87% 30.04 in 6.2 mi ESE 2.3 mph - N/A   Mostly Cloudy
6:50 AM 50 °F - 46 °F 80% 30.06 in 16 mi East 1.2 mph - -   Mostly Cloudy
6:50 AM 50.0 °F - 46.4 °F 87% 30.04 in 6.2 mi East 1.2 mph - N/A   Mostly Cloudy
7:50 AM 50.0 °F - 44.6 °F 82% 30.06 in 6.2 mi NW 4.6 mph - N/A   Mostly Cloudy
8:50 AM 53.6 °F - 44.6 °F 72% 30.06 in 6.2 mi NW 15.0 mph - N/A   Mostly Cloudy
9:50 AM 55 °F - 45 °F 60% 30.06 in 19 mi NW 12.7 mph - -   Partly Cloudy
9:50 AM 55.4 °F - 44.6 °F 67% 30.06 in 6.2 mi NW 12.7 mph - N/A   Scattered Clouds
10:50 AM 55.4 °F - 42.8 °F 63% 30.06 in 6.2 mi NW 13.8 mph - N/A   Scattered Clouds
11:50 AM 55.4 °F - 41.0 °F 58% 30.04 in 6.2 mi NNW 10.4 mph - N/A   Mostly Cloudy
12:50 PM 61 °F - 38 °F 31% 30.05 in 25 mi WNW 15.0 mph - -   Partly Cloudy
12:50 PM 60.8 °F - 39.2 °F 45% 30.04 in 6.2 mi WNW 15.0 mph - N/A   Scattered Clouds
1:50 PM 57.2 °F - 42.8 °F 59% 30.04 in 6.2 mi North 9.2 mph - N/A   Scattered Clouds
2:50 PM 57.2 °F - 37.4 °F 48% 30.04 in - NNW 10.4 mph - N/A   Clear
3:50 PM 60 °F - 34 °F 25% 30.03 in 25 mi WNW 18.4 mph - -   Scattered Clouds
3:50 PM 60.8 °F - 33.8 °F 36% 30.01 in - WNW 18.4 mph - N/A   Clear
4:50 PM 59.0 °F - 28.4 °F 31% 30.01 in - WNW 20.7 mph - N/A   Clear
5:50 PM 59.0 °F - 30.2 °F 34% 29.98 in - WNW 20.7 mph - N/A   Clear
6:50 PM 56 °F - 30 °F 25% 29.99 in 25 mi NW 21.9 mph - -   Scattered Clouds
6:50 PM 55.4 °F - 30.2 °F 38% 29.98 in - NW 21.9 mph - N/A   Clear
7:50 PM 53.6 °F - 28.4 °F 38% 29.98 in - NW 20.7 mph - N/A   Clear
8:50 PM 50.0 °F - 33.8 °F 54% 30.01 in 6.2 mi NNE 12.7 mph - N/A   Scattered Clouds
9:50 PM 45 °F - 37 °F 66% 30.02 in 25 mi North 2.3 mph - -   Scattered Clouds
9:50 PM 44.6 °F - 37.4 °F 76% 30.01 in - North 2.3 mph - N/A   Clear
10:50 PM 46.4 °F 39.8 °F 32.0 °F 57% 30.01 in 6.2 mi NW 16.1 mph - N/A   Mostly Cloudy
11:50 PM 42.8 °F - 35.6 °F 76% 30.01 in 6.2 mi South 2.3 mph - N/A   Mostly Cloudy